User: anonymous   Login
Location: Dappach
(48.9767°N, 9.6998°E)
Time: 07:50:05
(UTC+00:00)
Language:

Cosmos 1953 - Orbit

View from above orbital plane
View from above orbital plane
View from above satellite
View from above satellite

Ground track
Ground track

The orbit data is extracted from the following two-line orbital elements,

1 19210U 88050A   24203.91711449  .00009026  00000-0  47130-3 0  9996
2 19210  82.5130  32.2388 0015336  53.4178 306.8463 15.15680672947120
Epoch (UTC): 21 July 2024 22:00:38
Eccentricity: 0.0015336
inclination: 82.5130°
perigee height: 508 km
apogee height: 529 km
right ascension of ascending node: 32.2388°
argument of perigee: 53.4178°
revolutions per day: 15.15680672
mean anomaly at epoch: 306.8463°
orbit number at epoch: 94712

The dashed part of the orbit path shows where the satellite is in the earth's shadow,  

DLR